Time,TemperatureF,DewpointF,PressureIn,WindDirection,WindDirectionDegrees,WindSpeedMPH,WindSpeedGustMPH,Humidity,HourlyPrecipIn,Conditions,Clouds,dailyrainin,SoftwareType,DateUTC
2013-05-02 00:11:00,63.3,62.0,30.27,North,9,7.0,-999.0,94,-99.99,,,0.00,weatherlink.com 1.10,2013-05-02 04:11:00,
2013-05-02 00:27:00,63.1,61.0,30.28,NE,36,12.0,-999.0,94,-99.99,,,0.00,weatherlink.com 1.10,2013-05-02 04:27:00,
2013-05-02 00:42:00,63.1,61.0,30.28,NNE,32,13.0,-999.0,94,-99.99,,,0.00,weatherlink.com 1.10,2013-05-02 04:42:00,
2013-05-02 00:57:00,62.9,61.0,30.28,NNE,30,6.0,-999.0,94,-99.99,,,0.00,weatherlink.com 1.10,2013-05-02 04:57:00,
2013-05-02 01:12:00,62.7,61.0,30.27,NE,48,17.0,-999.0,94,-99.99,,,0.00,weatherlink.com 1.10,2013-05-02 05:12:00,
2013-05-02 01:27:00,62.5,61.0,30.27,NE,55,13.0,-999.0,94,-99.99,,,0.00,weatherlink.com 1.10,2013-05-02 05:27:00,
2013-05-02 01:42:00,62.4,61.0,30.27,NNE,32,11.0,-999.0,94,-99.99,,,0.00,weatherlink.com 1.10,2013-05-02 05:42:00,
2013-05-02 01:57:00,62.3,61.0,30.27,NE,35,8.0,-999.0,94,-99.99,,,0.00,weatherlink.com 1.10,2013-05-02 05:57:00,
2013-05-02 02:12:00,62.2,61.0,30.26,NE,51,8.0,-999.0,94,-99.99,,,0.00,weatherlink.com 1.10,2013-05-02 06:12:00,
2013-05-02 02:27:00,62.2,61.0,30.26,NE,38,11.0,-999.0,95,-99.99,,,0.00,weatherlink.com 1.10,2013-05-02 06:27:00,
2013-05-02 02:42:00,62.2,61.0,30.26,ENE,66,8.0,-999.0,95,-99.99,,,0.00,weatherlink.com 1.10,2013-05-02 06:42:00,
2013-05-02 02:57:00,62.3,61.0,30.26,NNE,27,12.0,-999.0,95,-99.99,,,0.00,weatherlink.com 1.10,2013-05-02 06:57:00,
2013-05-02 03:12:00,62.3,61.0,30.26,NE,55,10.0,-999.0,95,-99.99,,,0.00,weatherlink.com 1.10,2013-05-02 07:12:00,
2013-05-02 03:27:00,62.3,61.0,30.25,NE,42,13.0,-999.0,95,-99.99,,,0.00,weatherlink.com 1.10,2013-05-02 07:27:00,
2013-05-02 03:42:00,62.3,61.0,30.25,NE,36,17.0,-999.0,95,-99.99,,,0.00,weatherlink.com 1.10,2013-05-02 07:42:00,
2013-05-02 03:57:00,62.4,61.0,30.25,NE,43,10.0,-999.0,95,-99.99,,,0.00,weatherlink.com 1.10,2013-05-02 07:57:00,
2013-05-02 04:12:00,62.4,61.0,30.25,NE,48,12.0,-999.0,95,-99.99,,,0.00,weatherlink.com 1.10,2013-05-02 08:12:00,
2013-05-02 04:27:00,62.5,61.0,30.26,NE,40,12.0,-999.0,95,-99.99,,,0.00,weatherlink.com 1.10,2013-05-02 08:27:00,
2013-05-02 04:42:00,62.6,61.0,30.26,NNE,17,12.0,-999.0,94,-99.99,,,0.00,weatherlink.com 1.10,2013-05-02 08:42:00,
2013-05-02 04:57:00,62.6,61.0,30.25,NNE,28,5.0,-999.0,94,-99.99,,,0.00,weatherlink.com 1.10,2013-05-02 08:57:00,
2013-05-02 05:12:00,62.6,61.0,30.26,NNE,32,12.0,-999.0,94,-99.99,,,0.00,weatherlink.com 1.10,2013-05-02 09:12:00,
2013-05-02 05:27:00,62.6,61.0,30.26,NNE,24,12.0,-999.0,94,-99.99,,,0.00,weatherlink.com 1.10,2013-05-02 09:27:00,
2013-05-02 05:42:00,62.5,61.0,30.25,NNE,21,7.0,-999.0,94,-99.99,,,0.00,weatherlink.com 1.10,2013-05-02 09:42:00,
2013-05-02 05:57:00,62.5,61.0,30.25,NNE,31,10.0,-999.0,95,-99.99,,,0.00,weatherlink.com 1.10,2013-05-02 09:57:00,
2013-05-02 06:12:00,62.5,61.0,30.26,ENE,57,8.0,-999.0,95,-99.99,,,0.00,weatherlink.com 1.10,2013-05-02 10:12:00,
2013-05-02 06:27:00,62.6,61.0,30.27,ENE,57,7.0,-999.0,95,-99.99,,,0.00,weatherlink.com 1.10,2013-05-02 10:27:00,
2013-05-02 06:42:00,62.7,61.0,30.27,NNE,28,11.0,-999.0,95,-99.99,,,0.00,weatherlink.com 1.10,2013-05-02 10:42:00,
2013-05-02 06:57:00,62.6,61.0,30.27,ENE,57,15.0,-999.0,95,-99.99,,,0.00,weatherlink.com 1.10,2013-05-02 10:57:00,
2013-05-02 07:12:00,62.5,61.0,30.27,NE,53,13.0,-999.0,95,-99.99,,,0.01,weatherlink.com 1.10,2013-05-02 11:12:00,
2013-05-02 07:27:00,62.3,61.0,30.28,NNE,31,12.0,-999.0,95,-99.99,,,0.01,weatherlink.com 1.10,2013-05-02 11:27:00,
2013-05-02 07:42:00,62.2,61.0,30.28,ENE,61,14.0,-999.0,95,-99.99,,,0.01,weatherlink.com 1.10,2013-05-02 11:42:00,
2013-05-02 07:57:00,62.2,61.0,30.28,NE,39,12.0,-999.0,96,-99.99,,,0.01,weatherlink.com 1.10,2013-05-02 11:57:00,
2013-05-02 08:12:00,62.2,61.0,30.28,NE,55,8.0,-999.0,96,-99.99,,,0.01,weatherlink.com 1.10,2013-05-02 12:12:00,
2013-05-02 08:27:00,62.2,61.0,30.29,ENE,62,8.0,-999.0,96,-99.99,,,0.01,weatherlink.com 1.10,2013-05-02 12:27:00,
2013-05-02 08:42:00,62.2,61.0,30.29,NNE,33,9.0,-999.0,96,-99.99,,,0.01,weatherlink.com 1.10,2013-05-02 12:42:00,
2013-05-02 08:57:00,62.2,61.0,30.30,NE,51,14.0,-999.0,96,-99.99,,,0.01,weatherlink.com 1.10,2013-05-02 12:57:00,
2013-05-02 09:12:00,62.3,61.0,30.30,ENE,63,12.0,-999.0,96,-99.99,,,0.02,weatherlink.com 1.10,2013-05-02 13:12:00,
2013-05-02 09:27:00,62.3,61.0,30.30,ENE,58,7.0,-999.0,96,-99.99,,,0.02,weatherlink.com 1.10,2013-05-02 13:27:00,
2013-05-02 09:42:00,62.5,62.0,30.30,NNE,30,12.0,-999.0,97,-99.99,,,0.02,weatherlink.com 1.10,2013-05-02 13:42:00,
2013-05-02 09:57:00,62.7,62.0,30.31,NE,40,8.0,-999.0,97,-99.99,,,0.02,weatherlink.com 1.10,2013-05-02 13:57:00,
2013-05-02 10:12:00,62.9,62.0,30.30,NNE,30,13.0,-999.0,96,-99.99,,,0.02,weatherlink.com 1.10,2013-05-02 14:12:00,
2013-05-02 10:27:00,63.1,62.0,30.31,NNE,23,13.0,-999.0,97,-99.99,,,0.02,weatherlink.com 1.10,2013-05-02 14:27:00,
2013-05-02 10:42:00,63.5,63.0,30.31,NE,51,12.0,-999.0,97,-99.99,,,0.02,weatherlink.com 1.10,2013-05-02 14:42:00,
2013-05-02 10:57:00,63.1,62.0,30.31,NE,51,10.0,-999.0,97,-99.99,,,0.02,weatherlink.com 1.10,2013-05-02 14:57:00,
2013-05-02 11:12:00,63.7,63.0,30.31,NE,46,7.0,-999.0,96,-99.99,,,0.02,weatherlink.com 1.10,2013-05-02 15:12:00,
2013-05-02 11:27:00,63.3,62.0,30.31,NE,56,12.0,-999.0,96,-99.99,,,0.03,weatherlink.com 1.10,2013-05-02 15:27:00,
2013-05-02 11:42:00,63.1,62.0,30.31,NE,55,15.0,-999.0,96,-99.99,,,0.05,weatherlink.com 1.10,2013-05-02 15:42:00,
2013-05-02 11:57:00,62.8,62.0,30.31,ENE,58,12.0,-999.0,96,-99.99,,,0.06,weatherlink.com 1.10,2013-05-02 15:57:00,
2013-05-02 12:12:00,62.6,62.0,30.31,ENE,58,16.0,-999.0,96,-99.99,,,0.06,weatherlink.com 1.10,2013-05-02 16:12:00,
2013-05-02 12:27:00,62.8,62.0,30.30,NE,50,11.0,-999.0,96,-99.99,,,0.06,weatherlink.com 1.10,2013-05-02 16:27:00,
2013-05-02 12:42:00,64.0,63.0,30.30,ENE,72,12.0,-999.0,96,-99.99,,,0.06,weatherlink.com 1.10,2013-05-02 16:42:00,
2013-05-02 12:57:00,64.5,63.0,30.30,NE,38,8.0,-999.0,96,-99.99,,,0.06,weatherlink.com 1.10,2013-05-02 16:57:00,
2013-05-02 13:12:00,65.6,64.0,30.30,NE,44,17.0,-999.0,95,-99.99,,,0.06,weatherlink.com 1.10,2013-05-02 17:12:00,
2013-05-02 13:28:00,66.2,64.0,30.30,ENE,67,14.0,-999.0,92,-99.99,,,0.06,weatherlink.com 1.10,2013-05-02 17:28:00,
2013-05-02 13:43:00,66.8,63.0,30.30,NE,41,8.0,-999.0,88,-99.99,,,0.06,weatherlink.com 1.10,2013-05-02 17:43:00,
2013-05-02 13:58:00,67.4,63.0,30.30,ENE,63,13.0,-999.0,86,-99.99,,,0.06,weatherlink.com 1.10,2013-05-02 17:58:00,
2013-05-02 14:13:00,68.1,63.0,30.30,ENE,74,14.0,-999.0,83,-99.99,,,0.06,weatherlink.com 1.10,2013-05-02 18:13:00,
2013-05-02 14:28:00,68.4,62.0,30.29,ENE,64,14.0,-999.0,79,-99.99,,,0.06,weatherlink.com 1.10,2013-05-02 18:28:00,
2013-05-02 14:43:00,68.6,61.0,30.29,East,90,8.0,-999.0,77,-99.99,,,0.06,weatherlink.com 1.10,2013-05-02 18:43:00,
2013-05-02 14:58:00,69.2,61.0,30.28,ENE,60,12.0,-999.0,76,-99.99,,,0.06,weatherlink.com 1.10,2013-05-02 18:58:00,
2013-05-02 15:13:00,70.2,61.0,30.27,ENE,58,11.0,-999.0,73,-99.99,,,0.06,weatherlink.com 1.10,2013-05-02 19:13:00,
2013-05-02 15:28:00,70.5,61.0,30.27,NE,55,6.0,-999.0,72,-99.99,,,0.06,weatherlink.com 1.10,2013-05-02 19:28:00,
2013-05-02 15:43:00,70.1,60.0,30.27,NE,46,13.0,-999.0,70,-99.99,,,0.06,weatherlink.com 1.10,2013-05-02 19:43:00,
2013-05-02 15:58:00,69.9,59.0,30.27,ENE,67,12.0,-999.0,69,-99.99,,,0.06,weatherlink.com 1.10,2013-05-02 19:58:00,
2013-05-02 16:13:00,70.2,60.0,30.27,NNE,25,14.0,-999.0,71,-99.99,,,0.06,weatherlink.com 1.10,2013-05-02 20:13:00,
2013-05-02 16:28:00,70.3,60.0,30.26,NE,43,14.0,-999.0,70,-99.99,,,0.06,weatherlink.com 1.10,2013-05-02 20:28:00,
2013-05-02 16:43:00,69.7,60.0,30.26,ENE,62,14.0,-999.0,70,-99.99,,,0.06,weatherlink.com 1.10,2013-05-02 20:43:00,
2013-05-02 16:58:00,68.9,59.0,30.25,NNE,20,8.0,-999.0,70,-99.99,,,0.06,weatherlink.com 1.10,2013-05-02 20:58:00,
2013-05-02 17:13:00,68.5,59.0,30.25,NE,48,16.0,-999.0,71,-99.99,,,0.06,weatherlink.com 1.10,2013-05-02 21:13:00,
2013-05-02 17:28:00,68.3,59.0,30.25,NNE,27,8.0,-999.0,71,-99.99,,,0.06,weatherlink.com 1.10,2013-05-02 21:28:00,
2013-05-02 17:43:00,67.9,59.0,30.24,ENE,57,13.0,-999.0,72,-99.99,,,0.06,weatherlink.com 1.10,2013-05-02 21:43:00,
2013-05-02 17:58:00,67.6,58.0,30.24,NE,51,7.0,-999.0,71,-99.99,,,0.06,weatherlink.com 1.10,2013-05-02 21:58:00,
2013-05-02 18:13:00,67.6,58.0,30.24,NNE,32,16.0,-999.0,72,-99.99,,,0.06,weatherlink.com 1.10,2013-05-02 22:13:00,
2013-05-02 18:28:00,67.0,58.0,30.24,NE,52,11.0,-999.0,72,-99.99,,,0.06,weatherlink.com 1.10,2013-05-02 22:28:00,
2013-05-02 18:43:00,66.7,58.0,30.24,NE,55,11.0,-999.0,74,-99.99,,,0.06,weatherlink.com 1.10,2013-05-02 22:43:00,
2013-05-02 18:58:00,66.2,58.0,30.23,NE,55,11.0,-999.0,75,-99.99,,,0.06,weatherlink.com 1.10,2013-05-02 22:58:00,
2013-05-02 19:13:00,65.5,58.0,30.23,NE,34,16.0,-999.0,76,-99.99,,,0.06,weatherlink.com 1.10,2013-05-02 23:13:00,
2013-05-02 19:28:00,65.0,57.0,30.24,NE,36,8.0,-999.0,76,-99.99,,,0.06,weatherlink.com 1.10,2013-05-02 23:28:00,
2013-05-02 19:43:00,64.6,57.0,30.24,NE,42,13.0,-999.0,77,-99.99,,,0.06,weatherlink.com 1.10,2013-05-02 23:43:00,
2013-05-02 19:58:00,64.2,57.0,30.24,ENE,61,12.0,-999.0,78,-99.99,,,0.06,weatherlink.com 1.10,2013-05-02 23:58:00,
2013-05-02 20:13:00,63.7,57.0,30.25,ENE,63,13.0,-999.0,80,-99.99,,,0.06,weatherlink.com 1.10,2013-05-03 00:13:00,
2013-05-02 20:28:00,63.3,57.0,30.25,NE,55,10.0,-999.0,81,-99.99,,,0.06,weatherlink.com 1.10,2013-05-03 00:28:00,
2013-05-02 20:43:00,62.9,57.0,30.26,ENE,67,20.0,-999.0,82,-99.99,,,0.06,weatherlink.com 1.10,2013-05-03 00:43:00,
2013-05-02 20:58:00,62.5,57.0,30.26,NE,51,15.0,-999.0,83,-99.99,,,0.06,weatherlink.com 1.10,2013-05-03 00:58:00,
2013-05-02 21:13:00,62.2,57.0,30.27,ENE,62,11.0,-999.0,84,-99.99,,,0.06,weatherlink.com 1.10,2013-05-03 01:13:00,
2013-05-02 21:28:00,62.0,57.0,30.27,ENE,65,19.0,-999.0,84,-99.99,,,0.06,weatherlink.com 1.10,2013-05-03 01:28:00,
2013-05-02 21:43:00,61.9,57.0,30.26,NNE,24,11.0,-999.0,85,-99.99,,,0.06,weatherlink.com 1.10,2013-05-03 01:43:00,
2013-05-02 21:58:00,61.7,57.0,30.25,NE,42,13.0,-999.0,85,-99.99,,,0.06,weatherlink.com 1.10,2013-05-03 01:58:00,
2013-05-02 22:13:00,61.5,57.0,30.25,NE,56,17.0,-999.0,86,-99.99,,,0.06,weatherlink.com 1.10,2013-05-03 02:13:00,
2013-05-02 22:28:00,61.4,57.0,30.25,NE,42,18.0,-999.0,86,-99.99,,,0.06,weatherlink.com 1.10,2013-05-03 02:28:00,
2013-05-02 22:43:00,61.3,57.0,30.25,NNE,28,13.0,-999.0,87,-99.99,,,0.06,weatherlink.com 1.10,2013-05-03 02:43:00,
2013-05-02 22:58:00,61.1,57.0,30.25,NE,51,11.0,-999.0,87,-99.99,,,0.06,weatherlink.com 1.10,2013-05-03 02:58:00,
2013-05-02 23:13:00,61.0,58.0,30.25,North,355,12.0,-999.0,88,-99.99,,,0.06,weatherlink.com 1.10,2013-05-03 03:13:00,
2013-05-02 23:28:00,60.8,57.0,30.25,NE,36,5.0,-999.0,88,-99.99,,,0.06,weatherlink.com 1.10,2013-05-03 03:28:00,
2013-05-02 23:43:00,60.0,57.0,30.24,NE,39,14.0,-999.0,88,-99.99,,,0.06,weatherlink.com 1.10,2013-05-03 03:43:00,
2013-05-02 23:58:00,59.6,56.0,30.24,NNE,17,13.0,-999.0,89,-99.99,,,0.06,weatherlink.com 1.10,2013-05-03 03:58:00,